Kalamazoo, MI

2:43 PM EDT on September 26, 2017 (GMT -0400)
Kalamazoo-Battle Creek International

Weather History for KAZO - June, 2012

Change the Weather History Date:

Sunday, June 24, 2012

  Actual Average Record
Temperature  
Mean Temperature 77 °F 71 °F  
Max Temperature 87 °F 82 °F 95 °F (1998)
Min Temperature 66 °F 60 °F 44 °F (1961)
Degree Days  
Heating Degree Days 0 1  
Month to date heating degree days 47  
Since 1 June heating degree days 47  
Since 1 July heating degree days 6415  
Cooling Degree Days 12 6  
Month to date cooling degree days 104  
Year to date cooling degree days 145  
Since 1 June cooling degree days 104  
Growing Degree Days 28 (Base 50)    
Moisture  
Dew Point 57 °F    
Average Humidity 53    
Maximum Humidity 73    
Minimum Humidity 33    
Precipitation  
Precipitation T in 0.13 in 1.44 in (2000)
Month to date precipitation 0.81 2.99  
Year to date precipitation 15.43  
Sea Level Pressure  
Sea Level Pressure 29.98 in    
Wind  
Wind Speed 7 mph (West)    
Max Wind Speed 15 mph    
Max Gust Speed 20 mph    
Visibility 10 miles    
Events      
T = Trace of Precipitation, MM = Missing Value Source: NWS Daily Summary

Daily Weather History Graph

Daily Weather History Graph

Search for Another Location

Airport or City:

Trip Planner

Search our weather history database for the weather conditions in past years. The results will help you decide how hot, cold, wet, or windy it might be!

Date:

Astronomy

Jun. 24, 2012 Rise Set
Actual Time 6:06 AM EDT 9:22 PM EDT
Civil Twilight 5:32 AM EDT 9:57 PM EDT
Nautical Twilight 4:47 AM EDT 10:42 PM EDT
Astronomical Twilight 3:52 AM EDT 11:36 PM EDT
Moon 11:17 AM EDT (6/24) No Moon Set
Length of Visible Light 16h 25m
Length of Day
15h 15m
Waxing Crescent, 24% of the Moon is Illuminated
Jun 24
Waxing Crescent
Jun 26
First Quarter
Jul 3
Full
Jul 10
Last Quarter
Jul 19
New

Hourly Weather History & Observations

Time (EDT) Temp. Heat Index Dew Point Humidity Pressure Visibility Wind Dir Wind Speed Gust Speed Precip Events Conditions
12:53 AM 70.0 °F - 55.0 °F 59% 30.03 in 10.0 mi Calm Calm - N/A   Clear
1:53 AM 70.0 °F - 55.9 °F 61% 30.02 in 10.0 mi Calm Calm - N/A   Clear
2:53 AM 69.1 °F - 57.9 °F 68% 30.01 in 10.0 mi Calm Calm - N/A   Partly Cloudy
3:53 AM 68.0 °F - 59.0 °F 73% 30.01 in 10.0 mi Calm Calm - N/A   Scattered Clouds
4:53 AM 68.0 °F - 59.0 °F 73% 30.00 in 10.0 mi Calm Calm - N/A   Scattered Clouds
5:53 AM 69.1 °F - 57.0 °F 65% 29.99 in 10.0 mi SSE 4.6 mph - N/A   Partly Cloudy
6:53 AM 69.1 °F - 59.0 °F 70% 30.01 in 10.0 mi South 3.5 mph - N/A   Overcast
7:53 AM 72.0 °F - 61.0 °F 68% 30.01 in 10.0 mi South 3.5 mph - N/A   Mostly Cloudy
8:53 AM 75.9 °F - 60.1 °F 58% 30.00 in 10.0 mi South 6.9 mph - N/A   Partly Cloudy
9:53 AM 79.0 °F - 57.9 °F 48% 30.00 in 10.0 mi SW 5.8 mph - N/A   Mostly Cloudy
10:53 AM 80.1 °F 80.2 °F 55.9 °F 43% 30.00 in 10.0 mi WSW 6.9 mph - N/A   Partly Cloudy
11:53 AM 82.0 °F 81.4 °F 55.0 °F 39% 30.00 in 10.0 mi WSW 11.5 mph - N/A   Clear
12:53 PM 84.9 °F 83.9 °F 57.0 °F 38% 29.97 in 10.0 mi Variable 6.9 mph - N/A   Clear
1:53 PM 86.0 °F 84.5 °F 55.0 °F 35% 29.98 in 10.0 mi WNW 15.0 mph 19.6 mph N/A   Clear
2:53 PM 82.0 °F 81.4 °F 55.0 °F 39% 29.96 in 10.0 mi West 9.2 mph - 0.00 in   Scattered Clouds
3:53 PM 84.9 °F 83.2 °F 53.1 °F 33% 29.95 in 10.0 mi WNW 9.2 mph 17.3 mph N/A   Partly Cloudy
4:53 PM 87.1 °F 85.3 °F 55.0 °F 33% 29.94 in 10.0 mi West 11.5 mph 17.3 mph N/A   Clear
5:53 PM 84.0 °F 83.3 °F 57.0 °F 40% 29.93 in 10.0 mi West 10.4 mph - N/A   Overcast
6:53 PM 82.0 °F 81.7 °F 57.0 °F 42% 29.92 in 10.0 mi WNW 11.5 mph - N/A   Overcast
7:53 PM 80.1 °F 80.7 °F 59.0 °F 48% 29.93 in 10.0 mi WNW 10.4 mph - N/A   Overcast
8:53 PM 78.1 °F - 59.0 °F 52% 29.92 in 10.0 mi NW 6.9 mph - N/A   Overcast
9:53 PM 75.9 °F - 59.0 °F 56% 29.93 in 10.0 mi NNW 9.2 mph - N/A   Mostly Cloudy
10:53 PM 75.0 °F - 57.9 °F 55% 29.94 in 10.0 mi NNW 8.1 mph - N/A   Mostly Cloudy
11:53 PM 71.1 °F - 59.0 °F 66% 29.95 in 10.0 mi North 8.1 mph - N/A   Clear